(°C)
23°
22°
21°
22°
22°
22°
22°
(°C)
21°
20°
20°
20°
20°
20°
20°
სსა
სამხრ.
სამხრ.
სამხრ.
სამხრ.
სამხრ.
სამხრ.
(კმ/სთ)
9-21
7-21
8-21
9-22
9-22
10-21
10-20
(მმ)
1.2
1.7
1.9
2
1.9
1.5
0.9
(%)
72
85
85
85
85
77
69

მზის სიმაღლე

/ 11.7°
sun-icon
UV 5
06:16
20:25
ახალგაზრდა მთვარე (279°)
02:45
14:01

METAR სამხრეთი კაროლინა (KCUB)-თვის

დრო პირობები ტემპერატურა/
ნამი
ქარი ხილვადობა ამინდი ღრუბლები წნევა ცვლილება დაუმუშავებელი
IFR 21.7°C / 20°C 200º 11kt Gust 20kt 3200m in the Vicinity Thunderstorm Rain Mist 0.76mm precipitation Scattered Clouds 1600ft
Broken Clouds 5000ft
Overcast 11000ft
- KCUB 232307Z AUTO 20011G20KT 2SM VCTS RA BR SCT016 BKN050 OVC110 22/20 A3008 RMK AO2 PK WND 20027/2257 LTG DSNT NE-S P0003 T02170200
MVFR 22.2°C / 20°C 200º 14kt Gust 28kt 4800m in the Vicinity Thunderstorm Rain Mist 2.79mm precipitation Broken Clouds 1700ft
Broken Clouds 3300ft
Overcast 4700ft
1017 - KCUB 232253Z AUTO 20014G28KT 3SM VCTS RA BR BKN017 BKN033 OVC047 22/20 A3007 RMK AO2 PK WND 19028/2249 LTG DSNT SE-SW RAB12 SLP179 P0011 T02220200
IFR 25°C / 21.7°C 180º 7kt 4000m in the Vicinity Thunderstorm Rain 0.76mm precipitation Scattered Clouds 3700ft
Broken Clouds 5000ft
Overcast 10000ft
- KCUB 232233Z AUTO 18007KT 2 1/2SM VCTS RA SCT037 BKN050 OVC100 25/22 A3004 RMK AO2 LTG DSNT ALQDS RAB12 P0003 T02500217
VFR 27.2°C / 20.6°C 190º 5kt >10km - Few Clouds 5000ft
Scattered Clouds 11000ft
1016 - KCUB 232153Z AUTO 19005KT 10SM FEW050 SCT110 27/21 A3002 RMK AO2 LTG DSNT W AND NW SLP162 T02720206
VFR 28.9°C / 21.1°C variable 4kt >10km - Few Clouds 5500ft 1016 - KCUB 232053Z AUTO VRB04KT 10SM FEW055 29/21 A3001 RMK AO2 SLP160 T02890211 58036
VFR 27.2°C / 21.1°C variable 4kt >10km - Scattered Clouds 6500ft 1017 - KCUB 231953Z AUTO VRB04KT 10SM SCT065 27/21 A3005 RMK AO2 LTG DSNT E SLP173 T02720211
VFR 25.6°C / 20°C 180º 4kt >10km - Few Clouds 6500ft
Scattered Clouds 8000ft
1018 - KCUB 231853Z AUTO 18004KT 10SM FEW065 SCT080 26/20 A3008 RMK AO2 LTG DSNT SE AND S SLP185 T02560200
VFR 23.3°C / 19.4°C 300º 5kt >10km 3.05mm precipitation Clear 1019 - KCUB 231753Z AUTO 30005KT 10SM CLR 23/19 A3012 RMK AO2 LTG DSNT NE AND S RAB1654E19 SLP196 P0012 60012 T02330194 10272 20217 58014
MVFR 21.7°C / 19.4°C 350º 3kt 4800m Light Rain Mist 3.05mm precipitation Broken Clouds 3700ft
Broken Clouds 7500ft
Overcast 11000ft
- KCUB 231710Z AUTO 35003KT 3SM -RA BR BKN037 BKN075 OVC110 22/19 A3013 RMK AO2 RAB1654 PRESFR P0012 T02170194
IFR 21.7°C / 18.9°C 10º 4kt 2000m Rain 3.05mm precipitation Broken Clouds 3500ft
Broken Clouds 7500ft
Overcast 9000ft
- KCUB 231706Z AUTO 01004KT 1 1/4SM RA BKN035 BKN075 OVC090 22/19 A3014 RMK AO2 LTG DSNT N RAB1654 PRESFR P0012 T02170189
IFR 22.8°C / 18.3°C 260º 9kt Gust 21kt 2400m Heavy Rain 1.52mm precipitation Few Clouds 2800ft
Broken Clouds 3900ft
Overcast 6000ft
- KCUB 231656Z AUTO 26009G21KT 1 1/2SM +RA FEW028 BKN039 OVC060 23/18 A3017 RMK AO2 LTG DSNT W-N RAB54 P0006 T02280183
VFR 26.7°C / 21.7°C 220º 7kt >10km - Scattered Clouds 2300ft
Broken Clouds 5500ft
Broken Clouds 12000ft
- KCUB 231606Z AUTO 22007KT 10SM SCT023 BKN055 BKN120 27/22 A3016 RMK AO2 LTG DSNT W AND NW T02670217
MVFR 26.7°C / 21.7°C 190º 7kt >10km - Broken Clouds 2300ft
Broken Clouds 5500ft
1021 - KCUB 231553Z AUTO 19007KT 10SM BKN023 BKN055 27/22 A3016 RMK AO2 LTG DSNT W SLP211 T02670217
MVFR 26.7°C / 21.1°C 200º 6kt >10km - Broken Clouds 2300ft - KCUB 231501Z AUTO 20006KT 10SM BKN023 27/21 A3016 RMK AO2 T02670211 $
VFR 26.7°C / 20.6°C 180º 7kt >10km - Scattered Clouds 2300ft 1020 - KCUB 231453Z AUTO 18007KT 10SM SCT023 27/21 A3016 RMK AO2 SLP208 T02670206 53008 $
VFR 25°C / 19.4°C 200º 4kt >10km - Clear 1020 - KCUB 231353Z AUTO 20004KT 10SM CLR 25/19 A3015 RMK AO2 SLP206 T02500194 $
VFR 23.9°C / 19.4°C 160º 5kt >10km - Clear 1020 - KCUB 231253Z AUTO 16005KT 10SM CLR 24/19 A3014 RMK AO2 SLP203 T02390194 $
VFR 22.2°C / 19.4°C variable 0kt >10km - Clear 1020 - KCUB 231153Z AUTO 00000KT 10SM CLR 22/19 A3013 RMK AO2 SLP200 T02220194 10233 20206 55003 $
VFR 21.1°C / 18.9°C variable 0kt >10km - Clear 1020 - KCUB 231053Z AUTO 00000KT 10SM CLR 21/19 A3013 RMK AO2 SLP200 T02110189 $
VFR 20.6°C / 18.9°C variable 0kt >10km - Clear 1020 - KCUB 230953Z AUTO 00000KT 10SM CLR 21/19 A3013 RMK AO2 SLP200 T02060189 $
VFR 21.1°C / 18.9°C 150º 5kt >10km - Clear 1020 - KCUB 230853Z AUTO 15005KT 10SM CLR 21/19 A3014 RMK AO2 SLP203 T02110189 56011 $
VFR 22.2°C / 18.9°C variable 0kt >10km - Clear 1020 - KCUB 230753Z AUTO 00000KT 10SM CLR 22/19 A3015 RMK AO2 SLP205 T02220189 $
VFR 22.8°C / 18.9°C variable 0kt >10km - Clear 1020 - KCUB 230653Z AUTO 00000KT 10SM CLR 23/19 A3016 RMK AO2 SLP209 T02280189 $
VFR 22.8°C / 18.9°C variable 0kt >10km - Clear 1021 - KCUB 230553Z AUTO 00000KT 10SM CLR 23/19 A3017 RMK AO2 SLP214 T02280189 10289 20228 56003 $

IFR

21.7°C / 20°C

[მეტი]
ქარი 200º 11kt Gust 20kt
ხილვადობა 3200m
ამინდი in the Vicinity Thunderstorm Rain Mist 0.76mm precipitation
ღრუბლები Scattered Clouds 1600ft
Broken Clouds 5000ft
Overcast 11000ft
წნევა
ცვლილება -
დაუმუშავებელი KCUB 232307Z AUTO 20011G20KT 2SM VCTS RA BR SCT016 BKN050 OVC110 22/20 A3008 RMK AO2 PK WND 20027/2257 LTG DSNT NE-S P0003 T02170200

MVFR

22.2°C / 20°C

[მეტი]
ქარი 200º 14kt Gust 28kt
ხილვადობა 4800m
ამინდი in the Vicinity Thunderstorm Rain Mist 2.79mm precipitation
ღრუბლები Broken Clouds 1700ft
Broken Clouds 3300ft
Overcast 4700ft
წნევა 1017
ცვლილება -
დაუმუშავებელი KCUB 232253Z AUTO 20014G28KT 3SM VCTS RA BR BKN017 BKN033 OVC047 22/20 A3007 RMK AO2 PK WND 19028/2249 LTG DSNT SE-SW RAB12 SLP179 P0011 T02220200

IFR

25°C / 21.7°C

[მეტი]
ქარი 180º 7kt
ხილვადობა 4000m
ამინდი in the Vicinity Thunderstorm Rain 0.76mm precipitation
ღრუბლები Scattered Clouds 3700ft
Broken Clouds 5000ft
Overcast 10000ft
წნევა
ცვლილება -
დაუმუშავებელი KCUB 232233Z AUTO 18007KT 2 1/2SM VCTS RA SCT037 BKN050 OVC100 25/22 A3004 RMK AO2 LTG DSNT ALQDS RAB12 P0003 T02500217

VFR

27.2°C / 20.6°C

[მეტი]
ქარი 190º 5kt
ხილვადობა >10km
ამინდი -
ღრუბლები Few Clouds 5000ft
Scattered Clouds 11000ft
წნევა 1016
ცვლილება -
დაუმუშავებელი KCUB 232153Z AUTO 19005KT 10SM FEW050 SCT110 27/21 A3002 RMK AO2 LTG DSNT W AND NW SLP162 T02720206

VFR

28.9°C / 21.1°C

[მეტი]
ქარი variable 4kt
ხილვადობა >10km
ამინდი -
ღრუბლები Few Clouds 5500ft
წნევა 1016
ცვლილება -
დაუმუშავებელი KCUB 232053Z AUTO VRB04KT 10SM FEW055 29/21 A3001 RMK AO2 SLP160 T02890211 58036

VFR

27.2°C / 21.1°C

[მეტი]
ქარი variable 4kt
ხილვადობა >10km
ამინდი -
ღრუბლები Scattered Clouds 6500ft
წნევა 1017
ცვლილება -
დაუმუშავებელი KCUB 231953Z AUTO VRB04KT 10SM SCT065 27/21 A3005 RMK AO2 LTG DSNT E SLP173 T02720211

VFR

25.6°C / 20°C

[მეტი]
ქარი 180º 4kt
ხილვადობა >10km
ამინდი -
ღრუბლები Few Clouds 6500ft
Scattered Clouds 8000ft
წნევა 1018
ცვლილება -
დაუმუშავებელი KCUB 231853Z AUTO 18004KT 10SM FEW065 SCT080 26/20 A3008 RMK AO2 LTG DSNT SE AND S SLP185 T02560200

VFR

23.3°C / 19.4°C

[მეტი]
ქარი 300º 5kt
ხილვადობა >10km
ამინდი 3.05mm precipitation
ღრუბლები Clear
წნევა 1019
ცვლილება -
დაუმუშავებელი KCUB 231753Z AUTO 30005KT 10SM CLR 23/19 A3012 RMK AO2 LTG DSNT NE AND S RAB1654E19 SLP196 P0012 60012 T02330194 10272 20217 58014

MVFR

21.7°C / 19.4°C

[მეტი]
ქარი 350º 3kt
ხილვადობა 4800m
ამინდი Light Rain Mist 3.05mm precipitation
ღრუბლები Broken Clouds 3700ft
Broken Clouds 7500ft
Overcast 11000ft
წნევა
ცვლილება -
დაუმუშავებელი KCUB 231710Z AUTO 35003KT 3SM -RA BR BKN037 BKN075 OVC110 22/19 A3013 RMK AO2 RAB1654 PRESFR P0012 T02170194

IFR

21.7°C / 18.9°C

[მეტი]
ქარი 10º 4kt
ხილვადობა 2000m
ამინდი Rain 3.05mm precipitation
ღრუბლები Broken Clouds 3500ft
Broken Clouds 7500ft
Overcast 9000ft
წნევა
ცვლილება -
დაუმუშავებელი KCUB 231706Z AUTO 01004KT 1 1/4SM RA BKN035 BKN075 OVC090 22/19 A3014 RMK AO2 LTG DSNT N RAB1654 PRESFR P0012 T02170189

IFR

22.8°C / 18.3°C

[მეტი]
ქარი 260º 9kt Gust 21kt
ხილვადობა 2400m
ამინდი Heavy Rain 1.52mm precipitation
ღრუბლები Few Clouds 2800ft
Broken Clouds 3900ft
Overcast 6000ft
წნევა
ცვლილება -
დაუმუშავებელი KCUB 231656Z AUTO 26009G21KT 1 1/2SM +RA FEW028 BKN039 OVC060 23/18 A3017 RMK AO2 LTG DSNT W-N RAB54 P0006 T02280183

VFR

26.7°C / 21.7°C

[მეტი]
ქარი 220º 7kt
ხილვადობა >10km
ამინდი -
ღრუბლები Scattered Clouds 2300ft
Broken Clouds 5500ft
Broken Clouds 12000ft
წნევა
ცვლილება -
დაუმუშავებელი KCUB 231606Z AUTO 22007KT 10SM SCT023 BKN055 BKN120 27/22 A3016 RMK AO2 LTG DSNT W AND NW T02670217

MVFR

26.7°C / 21.7°C

[მეტი]
ქარი 190º 7kt
ხილვადობა >10km
ამინდი -
ღრუბლები Broken Clouds 2300ft
Broken Clouds 5500ft
წნევა 1021
ცვლილება -
დაუმუშავებელი KCUB 231553Z AUTO 19007KT 10SM BKN023 BKN055 27/22 A3016 RMK AO2 LTG DSNT W SLP211 T02670217

MVFR

26.7°C / 21.1°C

[მეტი]
ქარი 200º 6kt
ხილვადობა >10km
ამინდი -
ღრუბლები Broken Clouds 2300ft
წნევა
ცვლილება -
დაუმუშავებელი KCUB 231501Z AUTO 20006KT 10SM BKN023 27/21 A3016 RMK AO2 T02670211 $

VFR

26.7°C / 20.6°C

[მეტი]
ქარი 180º 7kt
ხილვადობა >10km
ამინდი -
ღრუბლები Scattered Clouds 2300ft
წნევა 1020
ცვლილება -
დაუმუშავებელი KCUB 231453Z AUTO 18007KT 10SM SCT023 27/21 A3016 RMK AO2 SLP208 T02670206 53008 $

VFR

25°C / 19.4°C

[მეტი]
ქარი 200º 4kt
ხილვადობა >10km
ამინდი -
ღრუბლები Clear
წნევა 1020
ცვლილება -
დაუმუშავებელი KCUB 231353Z AUTO 20004KT 10SM CLR 25/19 A3015 RMK AO2 SLP206 T02500194 $

VFR

23.9°C / 19.4°C

[მეტი]
ქარი 160º 5kt
ხილვადობა >10km
ამინდი -
ღრუბლები Clear
წნევა 1020
ცვლილება -
დაუმუშავებელი KCUB 231253Z AUTO 16005KT 10SM CLR 24/19 A3014 RMK AO2 SLP203 T02390194 $

VFR

22.2°C / 19.4°C

[მეტი]
ქარი variable 0kt
ხილვადობა >10km
ამინდი -
ღრუბლები Clear
წნევა 1020
ცვლილება -
დაუმუშავებელი KCUB 231153Z AUTO 00000KT 10SM CLR 22/19 A3013 RMK AO2 SLP200 T02220194 10233 20206 55003 $

VFR

21.1°C / 18.9°C

[მეტი]
ქარი variable 0kt
ხილვადობა >10km
ამინდი -
ღრუბლები Clear
წნევა 1020
ცვლილება -
დაუმუშავებელი KCUB 231053Z AUTO 00000KT 10SM CLR 21/19 A3013 RMK AO2 SLP200 T02110189 $

VFR

20.6°C / 18.9°C

[მეტი]
ქარი variable 0kt
ხილვადობა >10km
ამინდი -
ღრუბლები Clear
წნევა 1020
ცვლილება -
დაუმუშავებელი KCUB 230953Z AUTO 00000KT 10SM CLR 21/19 A3013 RMK AO2 SLP200 T02060189 $

VFR

21.1°C / 18.9°C

[მეტი]
ქარი 150º 5kt
ხილვადობა >10km
ამინდი -
ღრუბლები Clear
წნევა 1020
ცვლილება -
დაუმუშავებელი KCUB 230853Z AUTO 15005KT 10SM CLR 21/19 A3014 RMK AO2 SLP203 T02110189 56011 $

VFR

22.2°C / 18.9°C

[მეტი]
ქარი variable 0kt
ხილვადობა >10km
ამინდი -
ღრუბლები Clear
წნევა 1020
ცვლილება -
დაუმუშავებელი KCUB 230753Z AUTO 00000KT 10SM CLR 22/19 A3015 RMK AO2 SLP205 T02220189 $

VFR

22.8°C / 18.9°C

[მეტი]
ქარი variable 0kt
ხილვადობა >10km
ამინდი -
ღრუბლები Clear
წნევა 1020
ცვლილება -
დაუმუშავებელი KCUB 230653Z AUTO 00000KT 10SM CLR 23/19 A3016 RMK AO2 SLP209 T02280189 $

VFR

22.8°C / 18.9°C

[მეტი]
ქარი variable 0kt
ხილვადობა >10km
ამინდი -
ღრუბლები Clear
წნევა 1021
ცვლილება -
დაუმუშავებელი KCUB 230553Z AUTO 00000KT 10SM CLR 23/19 A3017 RMK AO2 SLP214 T02280189 10289 20228 56003 $

TAF სამხრეთი კაროლინა (KCUB)-თვის

From till


From till Wind 240º 5kt. Visibility 10km or more. in the Vicinity Showers . Broken Clouds 5000ft. Broken Clouds 20000ft.
Temporarly from till Wind variable 25kt. Gust 35kt. Visibility 1600m. Thunderstorm Rain . Broken Clouds 2000ft.
From till Wind variable 4kt. Visibility 10km or more. Broken Clouds 10000ft.
From till Wind 220º 7kt. Visibility 10km or more. Broken Clouds 5000ft.

დაუმუშავებელი: KCUB 232228Z 2322/2418 24005KT P6SM VCSH BKN050 BKN200 TEMPO 2322/2402 VRB25G35KT 1SM TSRA BKN020CB FM240300 VRB04KT P6SM BKN100 FM241500 22007KT P6SM BKN050

რადარის და ნალექების მაჩვენებელი სამხრეთი კაროლინა -თვის

გაწურეთ
Მსუბუქი
ზომიერი
Მძიმე
Ძალიან მძიმე
სეტყვა

მდებარეობის მარკერი მოთავსებულია სამხრეთი კაროლინა -ზე. ეს ანიმაცია აჩვენებს ნალექების სარადარო მონაცემებს როგორც ბოლო საათის განმავლობაში, ასევე 1h პროგნოზს. წვიმა ან თოვლის მსუბუქი ვარდნა შეიძლება უჩინარი იყოს რადარისთვის. ნალექების ინტენსივობა არის კოდირებული ფერით, დაწყებული ღია ლურჯიდან ნარინჯისფერამდე.

მიმდინარე სატელიტური სურათები სამხრეთი კაროლინა-თვის, აშშ

ლოკაციის მარკერი დაყენებყლია სამხრეთი კაროლინაზე. [მეტი]

რეალურ დროში სატელიტური სურათი აერთიანებს ხილულ სინათლეს დღისით ღამის განმავლობაში ინფრაწითელ გამოსხივებასთან ერთად. ღამით, სურათი არ არის მუქი, რადგან ინფრაწითელ გამოსხივებას შეუძლია ტემპერატურის განსხვავებების დადგენა. სამწუხაროდ, დაბალი ღრუბლები და ნისლი ძნელია განასხვავონ მიწის ტემპერატურისგან და, შესაბამისად, ისინი შეიძლება თითქმის არ ჩანდეს ღამით. Meteosat სატელიტური გამოსახულება ევროპისთვის ახლდება რეალურ დროში ყოველ 5 წუთში. GOES-16/GOES-17 (ჩრდილოეთი და სამხრეთ ამერიკა) და ჰიმავარი (აზია) გამოსახულებები ახლდება ყოველ 10 წუთში.

თავში დაბრუნება